User: anonymous   Login
Location: Chmeln�
(49.6483°N, 14.9871°E)
Time: 11:21:05
(UTC+00:00)
Language:

Cosmos 1300 Rocket - Orbit

View from above orbital plane
View from above orbital plane
View from above satellite
View from above satellite

Ground track
Ground track

The orbit data is extracted from the following two-line orbital elements,

1 12786U 81082B   21170.63019574  .00000087  00000-0  73745-5 0  9995
2 12786  82.4891  28.3006 0019048 102.5138 257.8210 14.84833928130873
Epoch (UTC): 19 June 2021 15:07:28
Eccentricity: 0.0019048
inclination: 82.4891°
perigee height: 601 km
apogee height: 627 km
right ascension of ascending node: 28.3006°
argument of perigee: 102.5138°
revolutions per day: 14.84833928
mean anomaly at epoch: 257.8210°
orbit number at epoch: 13087

The dashed part of the orbit path shows where the satellite is in the earth's shadow,  

DLR